VLG2800 LEBB-EGPH

Flight info

Callsign VLG2800
Flight time N/A
Altitude 36000
Route BISKA P87 BELEN DCT DIDIG/N0451F380 DCT MOKOR DCT TERPO DCT RINSO DCT EKRAS DCT AKIKI DCT GARMI UN867 AVANT UM184 HEMEL T420 TNT UN57 POL UN601 RIBEL DCT ABEVI DCT INPIP
Aircraft A320/M-SDE3FGHIRWY/LB1

Departure

Time 2026-05-06 07:17
Airport Bilbao Airport (LEBB)

Arrival

Time N/A
Airport Edinburgh Airport (EGPH)
Time Latitude Longitude Altitude Speed Heading
2026-05-06 06:51 43.30407 -2.90576 124 ft 0 kts 26°
2026-05-06 07:08 43.30407 -2.90577 127 ft 1 kts 26°
2026-05-06 07:09 43.30386 -2.90592 122 ft 4 kts 32°
2026-05-06 07:09 43.30364 -2.90614 123 ft 4 kts 48°
2026-05-06 07:09 43.30352 -2.90642 122 ft 4 kts 97°
2026-05-06 07:09 43.30354 -2.90653 123 ft 1 kts 117°
2026-05-06 07:12 43.30353 -2.90650 123 ft 1 kts 117°
2026-05-06 07:12 43.30346 -2.90631 123 ft 3 kts 117°
2026-05-06 07:12 43.30324 -2.90600 126 ft 6 kts 144°
2026-05-06 07:12 43.30285 -2.90561 125 ft 8 kts 144°
2026-05-06 07:13 43.30228 -2.90526 126 ft 10 kts 184°
2026-05-06 07:13 43.30162 -2.90568 127 ft 9 kts 205°
2026-05-06 07:13 43.30108 -2.90546 125 ft 9 kts 128°
2026-05-06 07:13 43.30076 -2.90459 126 ft 11 kts 117°
2026-05-06 07:14 43.30035 -2.90351 128 ft 14 kts 117°
2026-05-06 07:14 43.29988 -2.90220 125 ft 17 kts 116°
2026-05-06 07:14 43.29932 -2.90068 125 ft 19 kts 117°
2026-05-06 07:14 43.29869 -2.89895 124 ft 21 kts 117°
2026-05-06 07:15 43.29798 -2.89704 124 ft 22 kts 117°
2026-05-06 07:15 43.29761 -2.89602 124 ft 13 kts 117°
2026-05-06 07:15 43.29711 -2.89495 125 ft 13 kts 149°
2026-05-06 07:15 43.29646 -2.89570 123 ft 15 kts 246°
2026-05-06 07:16 43.29620 -2.89721 124 ft 18 kts 287°
2026-05-06 07:16 43.29711 -2.89974 124 ft 57 kts 296°
2026-05-06 07:16 43.29990 -2.90735 123 ft 118 kts 296°
2026-05-06 07:16 43.30430 -2.91943 167 ft 160 kts 296°
2026-05-06 07:17 43.30917 -2.93273 832 ft 152 kts 297°
2026-05-06 07:17 43.31557 -2.94967 1776 ft 146 kts 297°
2026-05-06 07:17 43.31878 -2.95795 2133 ft 152 kts 297°
2026-05-06 07:17 43.32447 -2.97062 2651 ft 161 kts 309°
2026-05-06 07:18 43.33316 -2.98065 3292 ft 164 kts 319°
2026-05-06 07:18 43.34211 -2.99031 4005 ft 163 kts 318°
2026-05-06 07:18 43.35180 -2.99846 4718 ft 167 kts 338°
2026-05-06 07:18 43.36361 -2.99855 5377 ft 177 kts 11°
2026-05-06 07:19 43.37494 -2.99195 6081 ft 176 kts 19°
2026-05-06 07:19 43.38570 -2.98443 6741 ft 171 kts 20°
2026-05-06 07:19 43.39655 -2.97703 7181 ft 180 kts 18°
2026-05-06 07:19 43.40837 -2.96959 7567 ft 193 kts 18°
2026-05-06 07:20 43.42111 -2.96180 7945 ft 207 kts 18°
2026-05-06 07:20 43.43476 -2.95366 8342 ft 221 kts 18°
2026-05-06 07:20 43.44953 -2.94506 8733 ft 240 kts 18°
2026-05-06 07:20 43.46557 -2.93589 9243 ft 258 kts 18°
2026-05-06 07:21 43.48254 -2.92626 9925 ft 269 kts 18°
2026-05-06 07:21 43.50061 -2.91612 10337 ft 291 kts 18°
2026-05-06 07:21 43.51991 -2.90532 10708 ft 309 kts 19°
2026-05-06 07:21 43.54027 -2.89394 11181 ft 322 kts 19°
2026-05-06 07:22 43.56136 -2.88216 11740 ft 331 kts 19°
2026-05-06 07:22 43.58286 -2.87013 12432 ft 335 kts 19°
2026-05-06 07:22 43.60458 -2.85795 13148 ft 338 kts 19°
2026-05-06 07:22 43.62648 -2.84569 13885 ft 341 kts 20°
2026-05-06 07:23 43.64858 -2.83334 14501 ft 344 kts 18°
2026-05-06 07:23 43.67085 -2.82088 15148 ft 346 kts 19°
2026-05-06 07:23 43.69373 -2.81038 15742 ft 348 kts 11°
2026-05-06 07:23 43.71706 -2.80283 16338 ft 350 kts 10°
2026-05-06 07:24 43.74085 -2.79517 16963 ft 353 kts 10°
2026-05-06 07:24 43.76523 -2.78727 17586 ft 357 kts 10°
2026-05-06 07:24 43.78911 -2.77949 18197 ft 359 kts 10°
2026-05-06 07:24 43.81390 -2.77143 18738 ft 363 kts 11°
2026-05-06 07:25 43.83828 -2.76350 19270 ft 366 kts 11°
2026-05-06 07:25 43.86308 -2.75542 19862 ft 367 kts 11°
2026-05-06 07:25 43.88805 -2.74726 20390 ft 370 kts 11°
2026-05-06 07:25 43.91314 -2.73904 21002 ft 370 kts 11°
2026-05-06 07:26 43.93847 -2.73184 21491 ft 373 kts
2026-05-06 07:26 43.96419 -2.72586 21976 ft 376 kts
2026-05-06 07:26 43.99008 -2.72053 22514 ft 377 kts
2026-05-06 07:26 44.01623 -2.71532 22961 ft 382 kts
2026-05-06 07:27 44.04257 -2.71000 23481 ft 384 kts
2026-05-06 07:27 44.06910 -2.70444 23905 ft 387 kts
2026-05-06 07:27 44.09580 -2.69867 24315 ft 389 kts
2026-05-06 07:27 44.12260 -2.69276 24744 ft 391 kts
2026-05-06 07:28 44.14957 -2.68673 25148 ft 393 kts
2026-05-06 07:28 44.17665 -2.68062 25571 ft 395 kts
2026-05-06 07:28 44.23117 -2.66844 26410 ft 399 kts
2026-05-06 07:29 44.25865 -2.66233 26804 ft 401 kts
2026-05-06 07:29 44.28625 -2.65619 27205 ft 403 kts
2026-05-06 07:29 44.31398 -2.65002 27606 ft 404 kts
2026-05-06 07:29 44.34183 -2.64380 28010 ft 406 kts
2026-05-06 07:30 44.36980 -2.63754 28418 ft 408 kts
2026-05-06 07:30 44.39790 -2.63125 28827 ft 409 kts
2026-05-06 07:30 44.42602 -2.62498 29294 ft 409 kts
2026-05-06 07:30 44.45412 -2.61870 29714 ft 410 kts
2026-05-06 07:31 44.48239 -2.61237 30090 ft 412 kts
2026-05-06 07:31 44.51080 -2.60600 30386 ft 415 kts
2026-05-06 07:31 44.53933 -2.59957 30742 ft 416 kts
2026-05-06 07:31 44.56795 -2.59308 31074 ft 418 kts
2026-05-06 07:32 44.59671 -2.58656 31415 ft 419 kts
2026-05-06 07:32 44.62555 -2.58007 31782 ft 420 kts
2026-05-06 07:32 44.65448 -2.57357 32144 ft 422 kts
2026-05-06 07:32 44.68349 -2.56700 32483 ft 423 kts
2026-05-06 07:33 44.71264 -2.56038 32861 ft 424 kts
2026-05-06 07:33 44.74184 -2.55375 33189 ft 427 kts
2026-05-06 07:33 44.77120 -2.54709 33552 ft 427 kts
2026-05-06 07:33 44.80063 -2.54045 33882 ft 430 kts
2026-05-06 07:34 44.83022 -2.53379 34121 ft 432 kts
2026-05-06 07:34 44.85995 -2.52706 34409 ft 433 kts
2026-05-06 07:34 44.88978 -2.52027 34670 ft 435 kts
2026-05-06 07:34 44.91967 -2.51348 34964 ft 435 kts
2026-05-06 07:35 44.94962 -2.50665 35217 ft 437 kts
2026-05-06 07:35 44.97967 -2.49976 35495 ft 437 kts
2026-05-06 07:35 45.00970 -2.49288 35798 ft 437 kts
2026-05-06 07:35 45.03974 -2.48602 36079 ft 438 kts
2026-05-06 07:36 45.06983 -2.47911 36350 ft 439 kts
2026-05-06 07:36 45.09999 -2.47218 36603 ft 439 kts
2026-05-06 07:36 45.13021 -2.46526 36848 ft 440 kts
2026-05-06 07:36 45.16048 -2.45831 37075 ft 441 kts
2026-05-06 07:37 45.19078 -2.45134 37359 ft 441 kts
2026-05-06 07:37 45.22101 -2.44435 37617 ft 441 kts
2026-05-06 07:37 45.25134 -2.43733 37854 ft 442 kts
2026-05-06 07:37 45.28180 -2.43028 37928 ft 445 kts
2026-05-06 07:38 45.34298 -2.41615 37938 ft 450 kts
2026-05-06 07:38 45.40480 -2.40184 37946 ft 450 kts
2026-05-06 07:39 45.46661 -2.38754 37949 ft 450 kts
2026-05-06 07:39 45.52841 -2.37316 37946 ft 450 kts
2026-05-06 07:40 45.59023 -2.35870 37947 ft 450 kts
2026-05-06 07:40 45.65200 -2.34431 37950 ft 450 kts
2026-05-06 07:41 45.71381 -2.32991 37939 ft 450 kts
2026-05-06 07:41 45.77562 -2.31546 37955 ft 450 kts
2026-05-06 07:42 45.83744 -2.30092 37947 ft 450 kts
2026-05-06 07:42 45.89914 -2.28625 37957 ft 450 kts
2026-05-06 07:43 45.96091 -2.27169 37960 ft 450 kts
2026-05-06 07:43 46.02265 -2.25706 37948 ft 449 kts
2026-05-06 07:44 46.08431 -2.24227 37948 ft 449 kts
2026-05-06 07:44 46.14595 -2.22728 37946 ft 449 kts
2026-05-06 07:45 46.20713 -2.21231 37949 ft 449 kts
2026-05-06 07:45 46.26871 -2.19719 37943 ft 449 kts
2026-05-06 07:46 46.33027 -2.18211 37944 ft 449 kts
2026-05-06 07:46 46.39175 -2.16694 37950 ft 449 kts
2026-05-06 07:47 46.45329 -2.15179 37943 ft 448 kts
2026-05-06 07:47 46.51481 -2.13664 37948 ft 448 kts
2026-05-06 07:48 46.57634 -2.12151 37949 ft 448 kts
2026-05-06 07:48 46.63786 -2.10626 37953 ft 448 kts
2026-05-06 07:49 46.69932 -2.09094 37949 ft 448 kts
2026-05-06 07:49 46.76092 -2.07560 37945 ft 448 kts
2026-05-06 07:50 46.82193 -2.06031 37941 ft 448 kts
2026-05-06 07:50 46.88373 -2.04485 37939 ft 448 kts
2026-05-06 07:51 46.94478 -2.02958 37933 ft 448 kts
2026-05-06 07:51 47.00667 -2.01408 37937 ft 449 kts
2026-05-06 07:52 47.06782 -1.99882 37938 ft 449 kts
2026-05-06 07:52 47.12943 -1.98361 37945 ft 449 kts
2026-05-06 07:53 47.19091 -1.96828 37961 ft 449 kts
2026-05-06 07:53 47.25247 -1.95288 37961 ft 449 kts
2026-05-06 07:54 47.31411 -1.93754 37953 ft 449 kts
2026-05-06 07:54 47.37378 -1.91134 37959 ft 450 kts 25°
2026-05-06 07:55 47.43000 -1.87069 37947 ft 450 kts 25°
2026-05-06 07:55 47.48625 -1.83013 37949 ft 450 kts 25°
2026-05-06 07:56 47.54248 -1.78966 37953 ft 450 kts 25°
2026-05-06 07:56 47.59879 -1.74899 37957 ft 450 kts 25°
2026-05-06 07:57 47.65514 -1.70826 37958 ft 451 kts 25°
2026-05-06 07:57 47.71142 -1.66737 37961 ft 451 kts 25°
2026-05-06 07:58 47.76780 -1.62629 37962 ft 451 kts 25°
2026-05-06 07:58 47.82381 -1.58529 37966 ft 452 kts 25°
2026-05-06 07:59 47.88024 -1.54395 37967 ft 452 kts 25°
2026-05-06 07:59 47.93661 -1.50258 37962 ft 452 kts 25°
2026-05-06 08:00 47.99316 -1.46151 37960 ft 451 kts 21°
2026-05-06 08:00 48.05381 -1.43972 37964 ft 449 kts
2026-05-06 08:01 48.11605 -1.44214 37960 ft 448 kts 356°
2026-05-06 08:01 48.17831 -1.44661 37962 ft 448 kts 356°
2026-05-06 08:02 48.24059 -1.45107 37969 ft 448 kts 356°
2026-05-06 08:02 48.30289 -1.45565 37974 ft 448 kts 356°
2026-05-06 08:03 48.36514 -1.46007 37977 ft 448 kts 355°
2026-05-06 08:03 48.42742 -1.46458 37978 ft 448 kts 356°
2026-05-06 08:04 48.47916 -1.46841 37985 ft 447 kts 356°
2026-05-06 08:04 48.54134 -1.47302 37980 ft 447 kts 356°
2026-05-06 08:05 48.60340 -1.47755 37980 ft 447 kts 355°
2026-05-06 08:05 48.66550 -1.48196 37977 ft 447 kts 356°
2026-05-06 08:06 48.72761 -1.48654 37977 ft 447 kts 356°
2026-05-06 08:06 48.78973 -1.49110 37979 ft 447 kts 356°
2026-05-06 08:07 48.85145 -1.49556 37981 ft 447 kts 356°
2026-05-06 08:07 48.91403 -1.49741 37979 ft 447 kts
2026-05-06 08:08 48.97565 -1.49014 37981 ft 448 kts
2026-05-06 08:08 49.03779 -1.48279 37980 ft 448 kts
2026-05-06 08:09 49.09995 -1.47541 37985 ft 448 kts
2026-05-06 08:09 49.16220 -1.46806 37980 ft 449 kts
2026-05-06 08:10 49.22454 -1.46063 37981 ft 450 kts
2026-05-06 08:10 49.28694 -1.45318 37985 ft 450 kts
2026-05-06 08:11 49.34937 -1.44570 37993 ft 450 kts
2026-05-06 08:11 49.41176 -1.43827 37993 ft 450 kts
2026-05-06 08:12 49.47421 -1.43070 37995 ft 450 kts
2026-05-06 08:12 49.53666 -1.42321 38000 ft 450 kts
2026-05-06 08:13 49.59907 -1.41578 37998 ft 450 kts
2026-05-06 08:13 49.66151 -1.40965 37995 ft 449 kts
2026-05-06 08:14 49.72389 -1.40470 37993 ft 449 kts
2026-05-06 08:14 49.78586 -1.39955 37997 ft 449 kts
2026-05-06 08:15 49.84599 -1.39426 37997 ft 449 kts
2026-05-06 08:15 49.90833 -1.38858 37999 ft 449 kts
2026-05-06 08:16 49.97075 -1.38291 38011 ft 449 kts
2026-05-06 08:16 50.03286 -1.37231 38007 ft 450 kts
2026-05-06 08:17 50.09476 -1.35712 38001 ft 451 kts
2026-05-06 08:17 50.15670 -1.34168 37994 ft 451 kts